STARLINK-5801, 56005

Orbit data source: Space-Track

STARLINK-5801, 56005 is a payload satellite owned by SpaceX/Seattle (US) in LEO that was launched on Fri, 24 Mar 2023 UTC via an FALCON 9 launch vehicle from the Air Force Eastern Test Range (AFETR). Payload-class satellites include a variety of spacecraft equipped with specific instruments for various scientific and technological missions. These include communications satellites like Starlink; space stations such as the ISS; scientific satellites like the Hubble; Earth observation satellites from companies like Planet Labs, Umbra, and HawkEye 360; GPS; miniature CubeSats for education and research; and military/defense satellites.

Loading next visibility...
Identifier
56005, 2023-042V
Orbit
LEO
Country
Flag of USUS
Related business
Manufacturer
SpaceX/Seattle
Mission
Operational Commercial Communications
Bus & Motor
STARLINK, Unknown motor
Mass
305 kg wet, ~290 kg dry
Launch date (UTC)
2023-03-24 (3 years ago)
Launch vehicle
FALCON 9
Launch site
Air Force Eastern Test Range (AFETR)
Object type
Payload
Rocket body
Debris
Shape & HBR
Box + 1 Pan, 10.1 m
Radar Cross Section
11.087 m², Large (>1 m²)

Expand to show TLE details & history
Last TLE update: 2 days ago

TLE from 2 days ago
0 STARLINK-5801
1 56005U 23042V   26171.35587073  .00000006  00000-0  97522-5 0  9998
2 56005  43.0034 203.8322 0002371 277.1085  82.9497 15.27575359178526
Epoch: 2026-06-20T08:32Z
TLE epoch observation values (Epoch: 2026-06-20T08:32:27.231Z)
Latitude
-0°
Longitude
167.14706°
Altitude
482.64 km
Speed
7.626 km/s
True Right ascension
13h 35m 19s
True Declination
0° 00' 00"
Sunlit
Object was in full shadow at epoch
Visualization orbit readout
Latitude
Unknown
Longitude
Unknown
Altitude
Unknown
Speed
Unknown
Apparent Right ascension
Unknown
Apparent Declination
Unknown
Sunlit
N/A
Visualization observer readout
Local Sidereal Time
21:23:34
Azimuth
Unknown
Elevation
Unknown
Doppler factor
Unknown
Orbital elements
Apogee altitude
486.635 km
Perigee altitude
483.38 km
Semi-major axis
6,863.145 km
Eccentricity
0.00024
Inclination
43.0034°
RAAN
203.8322°
Arg. of periapsis
277.1085°
True anomaly
82.97667°
Mean anomaly
82.9497°
Eccentric anomaly
82.96318°
Mean motion
3.81732 °/min
Orbital period
94.31 mins
BSTAR
0.0000097522
Loading maneuver chart data...
Computing Atmospheric mass density...
Loading historical data...
Loading historical data...
Loading historical data...
Loading historical data...
Loading historical data...
Loading historical data...
Loading historical data...

Documentation

Showing up to 5 results
|